This demonstration page uses our WeatherBlox Daily Observations layout. Learn more.

Left ArrowRight Arrow

47.50024, -111.30081

Hourly Observations for July 18, 2020

Temp ( °F °C ) Dew Point ( °F °C ) Humidity (%) Winds ( mph kmh ) Pressure ( in mb ) Visibility ( mi km ) Precip ( " mm )
12:53 am 00:53 Clear 59 15 48 8.9 67 67 ESE 9 15 29.89 1012 10 16 0.00 0.00
1:53 am 01:53 Partly Cloudy 57 13.9 48 8.9 72 72 undefined N/A 29.91 1013 10 16 0.00 0.00
2:53 am 02:53 Mostly Clear 51 10.6 46 7.8 83 83 SW 9 15 29.94 1014 10 16 0.00 0.00
3:53 am 03:53 Mostly Clear 54 12.2 48 8.9 80 80 SSW 13 20 29.93 1014 10 16 0.00 0.00
4:53 am 04:53 Mostly Cloudy 54 12.2 44 6.7 69 69 SW 9 15 29.97 1015 10 16 0.00 0.00
5:53 am 05:53 Mostly Sunny 52 11.1 45 7.2 77 77 NW 7 11 30.02 1017 10 16 0.00 0.00
6:53 am 06:53 Sunny 53 11.7 47 8.3 80 80 NW 12 19 30.05 1018 10 16 0.00 0.00
7:53 am 07:53 Mostly Cloudy 54 12.2 46 7.8 75 75 NNW 8 13 30.08 1019 10 16 0.00 0.00
8:53 am 08:53 Sunny 57 13.9 47 8.3 69 69 VRB 3 6 30.10 1019 10 16 0.00 0.00
9:53 am 09:53 Sunny 60 15.6 47 8.3 62 62 undefined N/A 30.09 1019 10 16 0.00 0.00
10:53 am 10:53 Mostly Sunny 64 17.8 48 8.9 56 56 SSW 5 7 30.09 1019 10 16 0.00 0.00
11:53 am 11:53 Sunny 67 19.4 47 8.3 49 49 undefined N/A 30.07 1018 10 16 0.00 0.00
12:53 pm 12:53 Sunny 72 22.2 46 7.8 40 40 Calm 30.04 1017 10 16 0.00 0.00
1:53 pm 13:53 Sunny 74 23.3 47 8.3 38 38 VRB 3 6 30.03 1017 10 16 0.00 0.00
2:53 pm 14:53 Sunny 78 25.6 45 7.2 31 31 WNW 8 13 30.01 1016 10 16 0.00 0.00
3:53 pm 15:53 Sunny 79 26.1 46 7.8 31 31 N 5 7 29.98 1015 10 16 0.00 0.00
4:53 pm 16:53 Sunny 80 26.7 46 7.8 30 30 VRB 3 6 29.97 1015 10 16 0.00 0.00
5:53 pm 17:53 Sunny 80 26.7 44 6.7 28 28 N 5 7 29.97 1015 10 16 0.00 0.00
6:53 pm 18:53 Sunny 81 27.2 44 6.7 27 27 Calm 29.96 1014 10 16 0.00 0.00
7:53 pm 19:53 Sunny 76 24.4 45 7.2 33 33 NE 10 17 29.97 1015 10 16 0.00 0.00
8:53 pm 20:53 Sunny 70 21.1 46 7.8 42 42 NE 8 13 29.98 1015 10 16 0.00 0.00
9:53 pm 21:53 Clear 66 18.9 46 7.8 49 49 E 7 11 30.00 1016 10 16 0.00 0.00
10:53 pm 22:53 Clear 64 17.8 46 7.8 52 52 E 6 9 30.00 1016 10 16 0.00 0.00
11:53 pm 23:53 Clear 61 16.1 46 7.8 58 58 SE 6 9 30.00 1016 10 16 0.00 0.00

Powered by AerisWeather